Wind_Speed
4 6 4 8 2 1 2 2 3 5 6 7 4 6 9 10 10 10 14 16 20 20 24 23 28 23 24 23 18 16 13 11 9 7 5 5 5 4 1 0 2 3 5 5
4 4 3 4 4 3 3 6 7 5 8 10 6 6 9 11 11 12 13 18 19 22 24 25 23 23 24 24 20 18 16 15 13 8 5 5 6 3 5 2 1 0 1 1
12 8 4 5 2 4 2 2 6 6 11 10 6 7 10 13 11 13 14 14 17 24 23 22 25 23 22 25 24 21 19 17 14 11 8 6 6 5 3 2 2 1 1 2
7 2 2 2 4 4 11 2 4 6 11 10 14 10 24 19 16 15 15 18 18 18 24 22 24 27 25 20 25 23 20 17 15 12 10 8 8 8 3 3 2 1 2 5
11 6 4 5 4 3 4 1 4 7 12 9 10 8 18 17 18 17 16 16 19 21 19 22 21 23 24 19 27 26 22 19 17 14 12 11 7 5 2 2 1 2 4 6
19 14 11 6 3 4 4 5 8 8 10 16 15 9 29 8 12 17 17 17 18 20 23 20 20 21 19 24 23 25 24 22 19 16 15 13 9 7 7 4 3 2 7 10
7 9 8 8 6 5 7 14 4 7 1 11 8 3 12 7 6 14 19 19 18 18 20 24 23 23 22 25 30 28 27 23 19 16 18 15 12 8 5 4 4 4 3 9
15 9 13 10 10 9 7 17 11 5 6 3 4 13 3 5 8 10 15 17 17 18 17 18 23 24 24 26 24 26 26 22 19 15 16 17 16 10 7 8 8 7 8 9
15 13 7 7 9 10 7 8 11 15 3 6 8 8 12 10 8 11 16 17 18 17 17 14 18 21 25 25 27 26 22 23 22 19 18 20 18 13 11 10 12 12 12 13
16 7 8 9 9 13 15 7 7 9 3 6 4 12 14 7 10 12 13 18 18 17 17 16 16 13 14 19 20 23 22 19 18 18 19 21 19 18 15 14 15 15 14 13
18 12 6 9 15 7 13 12 11 7 16 11 8 6 9 3 9 9 12 15 19 19 18 17 17 15 13 14 12 12 14 17 19 19 18 20 17 18 18 18 16 15 14 14
23 17 19 17 10 10 9 7 12 14 12 19 5 13 5 5 2 7 9 14 18 19 17 19 18 17 11 11 12 10 10 10 10 11 12 13 13 15 15 15 14 14 14 15
20 21 21 17 18 13 15 13 13 8 13 8 5 5 10 2 3 4 7 11 19 21 20 20 19 18 16 15 15 13 11 10 10 10 10 10 10 12 12 13 13 14 15 16
10 19 26 16 9 9 11 18 11 14 6 10 19 9 17 8 6 6 5 12 17 22 23 21 19 19 17 14 13 12 14 13 10 9 9 8 8 7 8 10 11 13 12 13
11 20 20 21 4 19 25 28 9 13 16 6 18 10 5 7 4 3 2 7 15 22 26 26 20 14 11 14 14 15 13 13 11 9 7 7 7 5 7 7 8 10 12 14
12 19 13 18 14 17 18 14 15 9 12 15 13 13 3 4 5 5 2 6 11 19 27 26 22 17 12 10 11 10 15 14 11 8 8 6 6 7 7 8 10 13 16 17
17 17 20 21 18 15 19 20 17 13 14 12 10 2 6 5 2 5 2 2 9 18 25 28 25 19 15 14 9 7 10 13 12 11 10 9 9 9 9 11 15 18 19 19
16 18 18 22 23 5 29 6 5 10 12 9 7 5 2 3 5 1 2 3 4 16 26 27 25 20 18 17 13 8 11 14 15 13 11 9 9 11 13 15 18 19 19 18
20 20 24 22 24 28 23 15 15 19 5 10 9 8 6 4 8 7 1 3 4 5 26 29 27 22 20 17 12 9 11 14 15 14 11 10 11 14 17 18 18 18 17 16
25 27 26 28 27 19 27 13 4 10 13 13 15 15 10 9 11 12 3 6 6 8 20 24 26 24 21 15 14 11 15 17 16 13 12 11 13 15 17 18 17 15 14 13
19 24 28 28 30 32 11 2 7 16 10 17 18 18 12 10 9 11 10 7 8 11 20 24 24 23 17 17 14 16 19 19 16 13 11 10 13 15 16 15 14 13 12 12
29 26 27 28 32 32 13 6 12 13 13 16 15 16 15 22 24 18 13 12 14 14 17 21 22 20 17 17 17 19 20 18 16 12 9 11 14 15 13 12 12 11 10 10
24 22 20 11 6 9 3 8 16 11 19 22 18 18 18 17 23 20 14 15 16 19 16 16 19 20 19 19 20 20 19 17 15 11 10 11 13 13 11 10 9 8 8 7
15 19 16 17 14 7 4 13 18 19 16 19 21 19 17 14 14 15 17 15 18 21 20 21 20 19 20 21 20 19 19 18 14 9 7 11 12 11 10 8 8 8 8 8
21 12 13 20 24 15 13 13 23 21 16 17 21 19 19 18 18 16 13 17 18 21 25 25 26 25 25 24 24 22 15 16 12 7 8 11 11 10 10 9 9 8 8 8
22 25 25 26 18 16 18 13 20 26 24 23 22 21 19 21 24 26 22 19 24 23 24 28 28 29 30 28 25 19 17 16 13 8 8 11 11 11 10 10 10 9 8 8
Wind_Direction
281 273 1 346 52 341 166 206 159 157 175 170 182 185 180 173 171 186 176 196 176 183 188 191 200 198 206 196 188 187 190 174 172 174 166 117 106 339 359 308 153 85 60 34
243 220 143 349 23 59 134 173 158 175 198 210 182 185 191 183 181 175 189 183 181 184 194 200 200 195 212 203 203 194 190 183 183 185 167 145 145 155 159 260 188 172 52 13
321 284 330 24 351 187 102 357 160 188 209 199 162 154 208 196 189 187 180 182 198 193 201 211 202 193 207 208 204 197 194 189 190 187 173 153 130 117 116 78 101 94 16 300
168 86 36 54 27 24 114 116 186 214 218 161 205 172 206 202 191 191 187 187 193 213 200 215 209 198 206 206 206 201 192 193 195 192 179 173 148 127 227 56 322 324 309 318
250 235 312 279 8 340 57 234 214 234 259 242 203 252 187 189 192 196 189 195 194 198 211 204 212 214 210 200 212 206 201 201 204 197 204 188 185 161 159 191 207 273 299 311
266 259 262 245 258 305 262 225 230 228 249 32 253 297 13 186 215 200 194 198 196 198 198 201 207 219 205 201 218 213 215 211 211 208 206 204 201 185 187 208 239 54 315 313
253 234 234 229 241 222 245 233 249 210 153 235 216 182 144 147 173 198 194 191 193 195 198 197 201 203 209 207 214 219 216 217 216 219 216 211 209 209 232 251 267 263 272 305
266 206 199 207 230 259 230 285 264 292 343 155 195 125 104 113 122 173 187 185 190 191 198 198 199 203 210 207 223 220 224 221 221 224 230 224 227 226 252 271 300 303 284 267
240 175 198 198 225 243 239 267 301 288 246 238 102 277 114 101 124 161 177 185 188 189 193 193 198 203 205 213 213 227 228 220 224 232 230 232 229 242 265 286 294 286 286 282
242 240 210 192 235 229 243 312 273 313 357 11 321 327 88 140 149 159 185 187 190 187 188 194 190 191 199 207 214 222 232 228 224 227 232 234 243 242 259 270 279 287 288 286
220 236 200 206 213 224 208 228 223 201 202 240 231 127 61 133 157 150 185 192 194 189 188 192 190 194 190 186 194 199 214 221 224 231 235 238 245 245 256 266 276 279 278 283
214 229 233 223 202 222 258 291 261 245 308 342 52 92 44 79 132 168 180 200 200 192 189 181 183 184 157 164 179 183 190 200 203 215 223 233 239 248 258 263 270 265 274 286
209 227 253 246 225 227 232 251 265 276 273 262 321 146 266 204 141 166 193 200 198 196 190 190 187 187 170 156 163 176 189 195 202 213 223 232 245 255 259 264 264 269 278 283
202 222 239 262 45 36 313 248 256 277 301 356 17 102 184 152 131 141 175 199 200 201 193 189 188 193 172 182 176 181 182 193 199 205 218 231 243 250 256 267 271 274 277 282
219 243 258 262 92 248 254 246 235 233 291 4 249 327 354 105 105 136 215 198 194 196 195 191 185 183 193 195 204 209 204 205 212 215 224 229 232 244 250 258 264 274 283 282
229 255 273 279 282 221 247 263 227 244 271 287 314 302 256 125 87 356 317 196 199 192 195 193 188 200 197 185 179 186 207 217 220 213 227 225 223 227 240 257 273 279 284 285
239 239 253 269 271 274 237 248 240 253 254 275 291 341 342 147 182 339 287 219 195 189 195 198 202 206 204 207 191 190 193 200 204 215 220 220 233 246 258 275 288 289 287 284
249 263 259 266 268 141 264 240 267 300 254 266 294 359 247 240 191 314 200 193 204 198 192 198 195 198 197 202 196 205 213 205 197 208 215 231 242 255 269 279 286 286 285 282
246 251 263 268 269 273 233 243 250 240 217 240 263 259 279 219 187 177 223 188 200 234 199 201 202 203 199 214 204 211 226 206 201 205 218 237 258 271 283 287 287 287 281 278
240 246 245 251 262 240 265 226 270 267 260 247 245 258 236 187 222 212 152 213 196 197 188 192 201 206 217 210 202 223 219 207 205 216 233 252 273 284 286 285 283 275 274 279
235 241 251 245 253 262 285 205 191 229 218 232 232 237 234 183 192 188 194 200 199 196 189 198 202 203 202 204 215 222 212 212 219 229 242 272 286 290 287 282 277 274 275 279
253 262 248 244 255 250 268 274 242 248 237 236 246 241 219 201 208 207 189 198 192 193 201 209 209 210 211 216 218 220 221 222 229 232 262 288 294 294 286 277 272 273 276 278
249 250 261 276 287 266 264 178 203 181 223 237 242 227 223 216 215 205 189 194 195 198 206 207 215 225 223 217 216 224 228 224 222 236 276 294 300 297 284 274 270 269 274 279
238 255 251 252 253 241 268 257 227 215 218 217 224 222 221 211 218 205 190 194 196 203 205 205 213 221 220 215 214 212 213 219 222 250 290 309 309 298 286 277 274 274 279 288
238 261 252 249 242 260 268 261 263 247 236 231 233 229 232 234 232 242 228 193 200 204 212 214 218 214 214 213 209 205 221 219 225 251 305 320 313 302 292 285 275 285 285 290
244 249 252 255 245 259 241 229 243 252 253 253 248 247 250 248 252 253 248 235 211 201 215 219 218 220 215 214 214 226 230 221 227 250 305 324 317 303 296 286 286 289 291 290
Height
3164 3163 3162 3162 3163 3162 3163 3161 3161 3164 3166 3166 3166 3167 3167 3168 3168 3168 3167 3168 3174 3178 3184 3186 3184 3188 3190 3194 3197 3200 3203 3205 3207 3208 3209 3211 3213 3214 3213 3213 3214 3214 3214 3213
3167 3165 3168 3164 3162 3162 3162 3161 3161 3164 3164 3164 3167 3169 3171 3169 3169 3169 3167 3169 3174 3179 3181 3182 3183 3187 3189 3193 3196 3200 3202 3205 3206 3207 3209 3210 3212 3213 3214 3212 3214 3214 3214 3214
3164 3160 3166 3163 3161 3160 3162 3159 3160 3159 3159 3163 3167 3169 3171 3169 3170 3169 3170 3172 3175 3177 3179 3179 3181 3186 3189 3191 3195 3198 3201 3203 3205 3206 3208 3210 3211 3213 3213 3213 3213 3214 3214 3214
3167 3164 3165 3162 3161 3161 3158 3161 3160 3157 3158 3166 3163 3165 3160 3166 3168 3167 3167 3170 3175 3175 3179 3180 3180 3185 3186 3191 3193 3197 3200 3203 3204 3206 3208 3209 3211 3214 3215 3214 3214 3214 3214 3214
3164 3165 3164 3162 3162 3163 3162 3160 3159 3156 3152 3152 3154 3148 3163 3165 3167 3166 3166 3168 3172 3175 3176 3178 3179 3182 3186 3190 3191 3195 3199 3201 3203 3205 3207 3209 3211 3214 3214 3213 3214 3214 3214 3213
3162 3163 3164 3163 3163 3162 3160 3159 3157 3155 3151 3157 3156 3153 3148 3157 3164 3164 3165 3167 3169 3172 3176 3179 3182 3182 3185 3191 3193 3193 3196 3200 3202 3204 3206 3208 3209 3211 3212 3213 3213 3213 3213 3212
3158 3159 3159 3162 3161 3161 3159 3155 3161 3151 3152 3154 3145 3143 3149 3157 3160 3161 3163 3166 3168 3171 3172 3176 3181 3184 3185 3188 3190 3190 3193 3197 3201 3204 3206 3208 3209 3211 3212 3213 3213 3213 3215 3212
3157 3155 3155 3158 3159 3156 3156 3152 3151 3143 3140 3143 3145 3147 3157 3157 3158 3161 3163 3166 3168 3170 3172 3173 3177 3181 3184 3186 3187 3187 3191 3195 3199 3202 3205 3207 3209 3210 3211 3212 3213 3213 3213 3214
3151 3158 3154 3157 3157 3158 3154 3153 3147 3141 3137 3138 3148 3154 3151 3152 3158 3161 3163 3165 3167 3170 3173 3173 3175 3177 3180 3182 3185 3186 3188 3192 3196 3199 3202 3205 3208 3209 3210 3211 3211 3211 3211 3211
3152 3152 3152 3153 3156 3156 3153 3153 3149 3145 3149 3143 3150 3152 3153 3156 3157 3159 3162 3165 3167 3170 3173 3174 3175 3176 3177 3179 3181 3184 3187 3191 3194 3197 3199 3202 3205 3206 3208 3209 3209 3209 3209 3209
3152 3151 3151 3152 3151 3152 3152 3151 3148 3149 3151 3145 3136 3152 3152 3156 3156 3157 3162 3164 3167 3169 3172 3174 3175 3176 3176 3178 3180 3183 3185 3189 3191 3194 3197 3200 3202 3204 3206 3207 3208 3208 3208 3208
3151 3149 3147 3146 3146 3148 3147 3147 3145 3144 3150 3140 3139 3156 3158 3157 3157 3157 3161 3163 3166 3169 3172 3174 3176 3177 3178 3179 3181 3184 3186 3188 3190 3193 3195 3198 3200 3202 3203 3205 3205 3205 3206 3206
3149 3150 3143 3144 3145 3143 3147 3146 3143 3145 3138 3137 3135 3155 3155 3155 3157 3158 3160 3162 3165 3167 3172 3175 3177 3178 3179 3180 3181 3184 3186 3188 3190 3193 3195 3197 3198 3200 3201 3201 3202 3203 3204 3204
3146 3146 3141 3139 3144 3145 3146 3144 3142 3140 3140 3148 3150 3149 3150 3152 3153 3155 3158 3160 3162 3165 3170 3175 3177 3178 3179 3181 3182 3184 3186 3188 3190 3192 3194 3196 3197 3198 3198 3200 3200 3200 3201 3201
3147 3144 3140 3138 3135 3150 3148 3143 3141 3142 3141 3144 3154 3149 3148 3147 3152 3153 3155 3155 3157 3161 3168 3173 3176 3177 3180 3181 3182 3184 3186 3188 3190 3192 3193 3194 3195 3196 3197 3198 3198 3199 3199 3197
3146 3143 3142 3138 3136 3139 3140 3137 3140 3140 3142 3143 3144 3145 3144 3146 3149 3153 3153 3154 3155 3158 3164 3169 3173 3174 3178 3179 3180 3183 3185 3187 3189 3191 3193 3193 3194 3195 3196 3196 3196 3196 3195 3194
3141 3140 3140 3138 3136 3134 3137 3136 3138 3139 3141 3142 3142 3143 3148 3148 3148 3151 3152 3153 3154 3157 3162 3166 3169 3173 3176 3179 3180 3182 3184 3186 3188 3190 3191 3192 3193 3194 3194 3194 3193 3192 3191 3190
3141 3138 3138 3136 3135 3143 3131 3130 3134 3138 3147 3143 3142 3145 3148 3149 3149 3150 3151 3152 3153 3155 3159 3164 3169 3173 3176 3178 3178 3180 3182 3184 3186 3188 3190 3191 3191 3191 3191 3191 3190 3189 3187 3186
3138 3139 3137 3136 3134 3129 3126 3128 3135 3137 3138 3140 3144 3146 3147 3148 3150 3149 3150 3152 3153 3153 3156 3162 3167 3171 3173 3175 3177 3179 3181 3183 3185 3187 3188 3189 3189 3189 3188 3187 3186 3185 3184 3182
3132 3133 3134 3133 3128 3131 3129 3125 3128 3135 3135 3137 3140 3141 3144 3148 3149 3147 3148 3151 3152 3153 3156 3161 3165 3168 3170 3173 3175 3177 3179 3182 3184 3185 3186 3187 3187 3186 3184 3183 3182 3182 3180 3179
3124 3127 3126 3127 3126 3126 3126 3124 3131 3133 3134 3133 3134 3137 3140 3146 3146 3146 3148 3149 3152 3153 3157 3159 3162 3166 3168 3171 3172 3175 3177 3180 3182 3183 3184 3184 3183 3182 3181 3180 3179 3178 3177 3176
3120 3121 3120 3122 3122 3122 3120 3124 3127 3126 3125 3128 3131 3134 3136 3138 3139 3142 3145 3147 3149 3152 3154 3157 3160 3163 3165 3168 3170 3173 3175 3178 3180 3180 3181 3181 3180 3178 3177 3176 3175 3175 3174 3174
3119 3120 3118 3120 3120 3116 3117 3117 3119 3121 3122 3125 3128 3130 3132 3133 3135 3138 3142 3144 3147 3150 3152 3155 3158 3160 3164 3166 3169 3171 3173 3175 3177 3178 3178 3178 3176 3175 3173 3173 3172 3172 3171 3171
3114 3111 3115 3117 3118 3114 3114 3113 3114 3115 3117 3119 3122 3125 3128 3130 3132 3134 3137 3142 3144 3146 3149 3151 3154 3157 3161 3163 3166 3169 3172 3174 3175 3176 3175 3174 3172 3171 3170 3169 3169 3169 3169 3168
3109 3106 3108 3110 3112 3112 3112 3111 3110 3113 3113 3114 3116 3118 3120 3124 3126 3130 3133 3137 3141 3144 3145 3147 3149 3153 3157 3160 3163 3166 3169 3171 3173 3173 3172 3171 3169 3168 3167 3167 3167 3167 3166 3166
3101 3102 3103 3103 3107 3106 3108 3109 3102 3106 3108 3110 3111 3113 3114 3117 3120 3122 3126 3130 3134 3139 3142 3142 3145 3147 3151 3155 3160 3164 3166 3168 3170 3171 3170 3169 3167 3166 3166 3166 3165 3165 3165 3164